Location: Bennemühlen
(52.5740°N, 9.7135°E)
Time: 16:41:47
(UTC+00:00)

Tiros 1 despin weight - Pass Details

Date: 21 February 2026
Orbit: 556 x 593 km, 48.2° (Epoch: 11 March)

Event Time Altitude Azimuth Distance (km) Brightness Sun altitude
Rises 13:55:09 0° 230° (SW) 2,742 ? 20.2°
Reaches altitude 10° 13:57:36 10° 220° (SW) 1,843 ? 20.0°
Maximum altitude 14:01:17 30° 159° (SSE) 1,014 ? 19.6°
Drops below altitude 10° 14:04:57 10° 97° (E) 1,839 ? 19.3°
Sets 14:07:23 0° 87° (E) 2,735 ? 19.0°
